2024/01/24 00:00:00, 0.0,-4.5
2024/01/24 00:10:00, 0.0,-4.8
2024/01/24 00:20:00, 0.0,-4.8
2024/01/24 00:30:00, 0.0,-4.2
2024/01/24 00:40:00, 0.0,-3.9
2024/01/24 00:50:00, 0.0,-4.8
2024/01/24 01:00:00, 0.0,-4.5
2024/01/24 01:10:00, 0.0,-4.6
2024/01/24 01:20:00, 0.0,-5.2
2024/01/24 01:30:00, 0.0,-5.1
2024/01/24 01:40:00, 0.0,-4.8
2024/01/24 01:50:00, 0.0,-4.6
2024/01/24 02:00:00, 0.0,-4.5
2024/01/24 02:10:00, 0.0,-3.9
2024/01/24 02:20:00, 0.0,-4.1
2024/01/24 02:30:00, 0.0,-4.1
2024/01/24 02:40:00, 0.0,-3.2
2024/01/24 02:50:00, 0.0,-4.0
2024/01/24 03:00:00, 0.0,-4.1
2024/01/24 03:10:00, 0.0,-4.0
2024/01/24 03:20:00, 0.0,-4.2
2024/01/24 03:30:00, 0.0,-4.2
2024/01/24 03:40:00, 0.0,-4.5
2024/01/24 03:50:00, 0.0,-4.8
2024/01/24 04:00:00, 0.0,-4.7
2024/01/24 04:10:00, 0.0,-4.7
2024/01/24 04:20:00, 0.0,-4.7
2024/01/24 04:30:00, 0.0,-4.7
2024/01/24 04:40:00, 0.0,-4.5
2024/01/24 04:50:00, 0.0,-4.5
2024/01/24 05:00:00, 0.0,-4.6
2024/01/24 05:10:00, 0.0,-4.7
2024/01/24 05:20:00, 0.0,-4.8
2024/01/24 05:30:00, 0.0,-4.7
2024/01/24 05:40:00, 0.0,-4.9
2024/01/24 05:50:00, 0.0,-4.9
2024/01/24 06:00:00, 0.0,-5.1
2024/01/24 06:10:00, 0.0,-4.7
2024/01/24 06:20:00, 0.0,-5.1
2024/01/24 06:30:00, 0.0,-5.5
2024/01/24 06:40:00, 0.3,-4.8
2024/01/24 06:50:00, 1.0,-5.0
2024/01/24 07:00:00, 0.9,-4.9
2024/01/24 07:10:00, 1.2,-5.0
2024/01/24 07:20:00, 1.6,-4.8
2024/01/24 07:30:00, 1.7,-4.8
2024/01/24 07:40:00, 1.7,-4.7
2024/01/24 07:50:00, 1.8,-4.9
2024/01/24 08:00:00, 2.1,-5.0
2024/01/24 08:10:00, 2.5,-4.7
2024/01/24 08:20:00, 2.7,-4.8
2024/01/24 08:30:00, 2.8,-4.7
2024/01/24 08:40:00, 3.3,-4.4
2024/01/24 08:50:00, 3.9,-4.6
2024/01/24 09:00:00, 5.2,-4.8
2024/01/24 09:10:00, 6.4,-4.4
2024/01/24 09:20:00, 7.4,-4.4
2024/01/24 09:30:00, 8.4,-4.5
2024/01/24 09:40:00, 9.2,-4.8
2024/01/24 09:50:00, 9.9,-4.5
2024/01/24 10:00:00,10.9,-4.4
2024/01/24 10:10:00,11.4,-4.2
2024/01/24 10:20:00,11.8,-4.3
2024/01/24 10:30:00,12.6,-4.1
2024/01/24 10:40:00,13.2,-3.9
2024/01/24 10:50:00,13.9,-4.2
2024/01/24 11:00:00,14.4,-4.2
2024/01/24 11:10:00,14.9,-4.0
2024/01/24 11:20:00,15.7,-3.3
2024/01/24 11:30:00,16.2,-3.9
2024/01/24 11:40:00,17.2,-3.9
2024/01/24 11:50:00,18.7,-3.9
2024/01/24 12:00:00,19.8,-3.7
2024/01/24 12:10:00,20.8,-4.0
2024/01/24 12:20:00,21.8,-3.9
2024/01/24 12:30:00,22.8,-3.3
2024/01/24 12:40:00,23.6,-3.5
2024/01/24 12:50:00,24.0,-2.8
2024/01/24 13:00:00,24.0,-3.2
2024/01/24 13:10:00,23.8,-3.5
2024/01/24 13:20:00,24.0,-3.5
2024/01/24 13:30:00,24.1,-3.8
2024/01/24 13:40:00,24.7,-3.1
2024/01/24 13:50:00,25.7,-3.7
2024/01/24 14:00:00,26.8,-3.9
2024/01/24 14:10:00,27.3,-3.7
2024/01/24 14:20:00,28.2,-3.9
2024/01/24 14:30:00,29.0,-3.5
2024/01/24 14:40:00,29.9,-3.8
2024/01/24 14:50:00,30.8,-3.8
2024/01/24 15:00:00,31.7,-3.9
2024/01/24 15:10:00,33.4,-4.1
2024/01/24 15:20:00,34.9,-4.1
2024/01/24 15:30:00,36.4,-4.1
2024/01/24 15:40:00,37.6,-3.8
2024/01/24 15:50:00,38.9,-3.7
2024/01/24 16:00:00,40.0,-4.1
2024/01/24 16:10:00,41.4,-4.2
2024/01/24 16:20:00,42.3,-4.1
2024/01/24 16:30:00,42.7,-3.5
2024/01/24 16:40:00,43.0,-3.9
2024/01/24 16:50:00,43.2,-4.1
2024/01/24 17:00:00,43.6,-3.8
2024/01/24 17:10:00,43.9,-4.2
2024/01/24 17:20:00,44.8,-3.8
2024/01/24 17:30:00,45.4,-3.7
2024/01/24 17:40:00,45.6,-3.7
2024/01/24 17:50:00,46.2,-3.8
2024/01/24 18:00:00,46.7,-3.9
2024/01/24 18:10:00,46.7,-3.9
2024/01/24 18:20:00,46.9,-3.7
2024/01/24 18:30:00,47.3,-3.7
2024/01/24 18:40:00,47.6,-3.9
2024/01/24 18:50:00,47.8,-3.8
2024/01/24 19:00:00,48.0,-3.9
2024/01/24 19:10:00,48.0,-3.5
2024/01/24 19:20:00,48.5,-3.5
2024/01/24 19:30:00,48.4,-3.5
2024/01/24 19:40:00,48.6,-3.7
2024/01/24 19:50:00,49.3,-3.2
2024/01/24 20:00:00,49.3,-3.3
2024/01/24 20:10:00,49.6,-3.3
2024/01/24 20:20:00,49.7,-3.4
2024/01/24 20:30:00,49.5,-3.2
2024/01/24 20:40:00,49.6,-3.3
2024/01/24 20:50:00,49.6,-3.4
2024/01/24 21:00:00,49.5,-3.3
2024/01/24 21:10:00,50.2,-3.3
2024/01/24 21:20:00,49.9,-3.1
2024/01/24 21:30:00,49.6,-3.2
2024/01/24 21:40:00,49.1,-3.2
2024/01/24 21:50:00,49.1,-3.2
2024/01/24 22:00:00,49.2,-3.1
2024/01/24 22:10:00,49.1,-3.2
2024/01/24 22:20:00,49.2,-3.1
2024/01/24 22:30:00,49.1,-3.1
2024/01/24 22:40:00,48.8,-2.9
2024/01/24 22:50:00,48.5,-3.1
2024/01/24 23:00:00,48.7,-3.1
2024/01/24 23:10:00,49.3,-3.1
2024/01/24 23:20:00,49.6,-2.9
2024/01/24 23:30:00,49.5,-3.0
2024/01/24 23:40:00,49.3,-3.0
2024/01/24 23:50:00,49.6,-3.0
